Wind_Speed
39 39 39 39 39 39 38 39 39 39 39 38 37 37 37 36 36 36 35 34 34 33 33 32 32 32 32 32 32 31 32 31 31 31 31 31 30 30 30 31 31 31 31
42 42 42 42 42 42 41 41 41 41 41 41 40 40 39 39 38 37 37 36 36 36 35 35 34 34 34 34 34 33 32 32 33 33 33 33 32 32 31 32 32 32 32
44 44 44 45 45 44 43 43 43 44 43 43 42 42 42 41 40 40 39 38 38 38 37 37 37 36 36 36 36 35 35 35 35 35 34 34 34 33 33 33 33 34 34
46 46 46 46 46 46 46 45 45 46 46 45 45 44 44 43 42 42 42 41 40 40 40 39 39 38 38 38 38 37 37 37 37 37 36 35 35 35 35 35 35 35 35
48 48 48 48 49 49 48 48 47 47 47 47 47 46 46 45 44 44 44 44 43 42 42 42 41 41 40 40 40 39 39 39 39 38 38 37 37 37 37 37 37 37 37
50 50 50 50 51 51 50 50 50 50 50 50 49 49 48 47 46 46 46 45 45 45 44 43 43 43 42 42 41 41 41 40 40 40 39 39 39 38 38 38 38 38 38
52 52 51 52 52 53 52 52 52 52 52 52 52 51 50 50 49 48 48 48 47 47 46 45 44 44 44 44 43 43 43 42 41 41 41 40 40 40 39 39 39 39 39
55 54 53 53 54 54 54 54 53 53 53 54 54 54 53 52 51 50 50 49 49 48 47 46 46 45 45 45 45 45 44 43 43 42 42 42 41 41 40 40 40 41 41
55 55 55 55 55 56 56 55 55 55 55 55 55 55 55 54 52 52 51 51 50 50 49 48 48 47 46 46 46 46 45 44 44 44 44 43 43 42 41 41 41 42 41
55 56 57 56 57 57 57 57 56 56 56 56 56 56 56 56 55 53 52 52 52 51 51 51 50 50 50 49 48 48 47 47 46 46 46 45 44 43 43 43 43 43 42
56 57 57 57 57 57 57 57 57 57 57 57 57 57 57 57 56 56 54 53 53 52 52 51 52 52 51 52 51 51 49 49 48 47 48 47 45 45 45 45 44 44 44
56 56 57 58 58 58 58 57 57 57 57 57 58 58 58 57 57 57 56 55 54 53 54 53 53 53 53 53 53 53 52 51 49 49 49 49 47 46 46 45 45 45 44
55 56 57 57 58 59 59 58 57 57 57 57 57 57 58 58 58 58 58 57 57 55 54 54 54 54 54 54 53 53 53 52 51 51 50 49 47 47 46 45 45 44 44
54 55 56 57 58 58 58 57 57 57 58 57 56 56 57 57 57 58 59 58 58 57 56 55 55 55 54 54 54 54 53 52 51 51 50 49 47 46 46 45 45 44 44
54 54 55 57 57 57 57 57 57 57 57 56 56 56 56 57 58 58 58 58 59 58 56 56 56 56 55 55 54 53 53 52 51 50 50 49 48 48 46 45 45 45 45
53 53 54 55 56 56 56 56 56 56 55 55 55 55 56 57 58 58 59 59 60 60 58 56 56 56 55 56 55 54 53 53 52 51 51 50 49 49 48 47 46 46 46
53 53 53 54 54 54 53 54 54 55 55 55 55 56 56 56 57 58 58 59 59 60 59 57 56 56 55 54 55 55 54 53 51 51 51 51 50 50 49 48 47 47 47
51 50 51 52 53 53 53 54 55 56 55 55 55 56 56 57 57 57 58 58 59 59 58 57 55 55 55 54 54 53 53 53 52 51 51 51 51 51 49 49 48 48 48
48 49 49 49 50 51 53 54 55 55 55 55 55 56 56 56 56 56 57 58 58 58 58 57 55 54 54 53 53 53 53 52 52 51 50 50 50 49 49 49 47 47 48
46 46 46 47 49 50 51 53 54 54 54 54 55 55 55 55 54 55 55 56 56 57 57 56 55 53 51 51 51 50 50 51 50 49 50 49 50 49 48 47 47 46 46
42 44 44 46 47 48 50 51 52 52 52 52 52 53 53 53 53 53 53 53 54 54 54 54 52 49 48 49 49 48 48 49 50 49 48 48 48 48 47 46 45 44 44
41 43 45 46 46 47 49 50 51 51 50 50 50 51 51 51 51 51 51 51 50 50 49 50 49 46 46 47 47 46 46 47 47 47 47 46 47 46 45 44 44 44 44
40 42 42 43 44 45 46 47 47 49 49 49 48 48 48 48 48 48 48 48 47 46 47 47 45 44 45 45 45 44 44 45 44 44 45 44 44 44 43 43 42 42 42
41 41 42 42 42 42 43 44 46 46 46 46 46 46 45 45 44 44 45 45 45 43 44 44 43 43 43 42 42 42 42 43 43 42 43 42 42 42 42 41 40 40 40
41 40 40 40 41 40 40 41 42 42 42 42 42 42 42 41 40 41 42 42 41 40 41 41 42 42 41 41 41 40 40 41 41 40 41 41 40 40 39 38 38 38 39
39 39 39 38 38 38 38 39 39 38 38 38 39 39 39 38 38 39 39 39 38 38 38 40 41 41 40 40 39 38 39 40 40 39 40 41 39 39 38 37 36 36 37
Wind_Direction
262 261 262 263 263 264 265 265 265 267 267 267 268 268 268 269 268 269 269 270 270 271 271 272 273 273 274 274 275 276 277 278 279 281 282 284 285 286 287 288 289 289 290
262 262 262 263 263 264 264 265 265 266 266 267 268 268 268 268 267 267 268 269 269 269 270 271 272 272 273 273 273 275 276 278 279 280 281 283 284 285 286 287 288 288 289
263 262 263 263 264 264 264 265 265 266 266 267 267 268 268 268 267 267 267 268 268 269 270 271 271 272 272 273 273 273 275 276 277 279 280 281 282 283 284 286 287 287 288
263 263 263 263 264 264 264 264 265 266 266 266 267 267 267 267 267 267 267 268 268 268 269 270 271 272 273 272 272 273 274 275 276 278 279 280 281 282 283 284 285 286 287
263 263 263 264 264 264 264 264 264 265 266 266 266 266 266 266 266 266 266 267 267 267 268 269 270 270 271 271 271 272 273 275 276 277 278 278 280 281 282 283 284 285 286
262 262 263 264 264 264 264 264 264 264 265 266 266 266 265 265 265 266 266 266 267 267 267 268 268 269 270 271 270 270 272 274 275 276 277 278 279 280 281 282 284 285 285
262 261 262 263 264 264 264 264 264 265 265 266 266 266 265 265 265 265 265 266 266 267 267 267 267 268 269 269 269 269 270 272 274 275 277 278 279 280 281 282 284 285 285
262 262 262 264 264 265 265 265 265 265 265 266 266 266 265 264 265 265 265 265 266 266 266 266 266 267 267 268 268 268 269 271 273 275 276 277 278 279 280 282 284 285 285
264 264 263 264 265 265 265 264 265 265 265 265 265 265 265 264 264 264 264 265 265 265 265 265 264 264 265 267 268 268 269 269 272 273 274 275 276 278 279 281 283 284 285
265 265 264 264 265 265 265 264 264 264 264 264 264 265 265 265 264 263 263 263 264 264 264 264 264 264 264 265 267 267 268 270 271 272 273 274 275 276 278 280 282 283 284
267 267 265 264 265 265 264 264 264 264 264 264 264 264 264 264 264 264 263 262 263 263 263 263 263 263 264 264 266 267 268 270 270 271 273 273 274 275 276 278 280 282 283
268 266 265 264 264 264 264 263 263 264 264 264 264 263 263 263 264 264 264 263 262 262 262 261 262 263 263 264 266 266 267 268 270 271 272 272 273 275 275 277 279 280 280
268 266 264 263 263 264 264 263 263 263 264 264 264 263 263 263 263 263 264 263 262 261 260 260 261 263 263 263 264 265 266 266 269 270 270 271 272 273 274 275 277 278 279
269 268 265 263 263 263 263 263 263 263 263 263 263 263 263 263 263 263 263 263 262 261 260 260 260 262 262 263 264 265 266 266 267 267 268 269 270 272 273 274 276 277 278
269 268 267 264 263 263 263 263 263 262 263 263 263 263 263 262 262 263 263 263 262 262 261 260 260 260 261 262 263 264 264 265 266 267 266 268 269 270 272 273 275 277 278
268 268 266 265 263 262 262 262 262 262 263 263 263 264 264 263 263 263 263 263 262 262 261 260 260 260 260 261 261 263 264 264 264 265 266 268 269 269 270 272 274 276 277
268 267 266 265 264 264 263 262 262 263 263 263 263 264 264 264 263 263 263 262 262 261 262 261 260 259 260 261 261 261 262 262 263 264 265 267 268 269 270 271 273 274 276
269 268 268 267 266 266 265 264 263 263 263 263 263 264 264 263 263 263 263 263 262 261 262 261 260 260 260 261 261 261 262 261 262 263 265 266 267 268 269 271 271 273 275
270 269 268 268 268 267 266 265 264 263 263 264 263 264 264 264 264 264 264 263 262 261 261 261 260 260 259 259 260 261 261 261 261 263 264 265 266 267 269 270 271 272 273
270 269 270 270 270 269 267 265 265 264 263 263 263 263 264 264 265 264 264 263 261 260 260 260 260 259 258 258 259 260 260 261 262 264 264 265 266 267 269 269 270 271 273
272 273 272 272 272 270 268 266 265 264 263 262 262 262 263 264 263 264 263 261 261 260 259 259 259 258 257 257 257 259 259 260 260 262 264 266 267 267 268 269 270 270 272
275 275 274 273 272 272 270 268 266 263 263 263 262 261 262 262 263 263 262 261 260 259 258 258 258 258 256 256 255 258 259 259 260 261 263 266 267 266 267 269 270 270 271
276 276 275 275 273 272 272 270 267 265 265 264 262 261 261 262 261 260 260 259 259 258 258 257 256 257 256 256 255 257 258 258 261 262 262 264 265 265 267 269 269 270 270
277 278 277 276 275 275 273 270 267 265 265 264 261 261 261 260 259 259 259 258 257 257 257 256 255 256 256 255 255 257 257 258 260 261 261 262 264 266 268 268 268 268 269
278 278 277 277 276 275 273 271 268 265 265 262 260 261 261 259 258 258 257 257 255 254 254 255 254 254 254 254 254 256 257 258 259 260 261 263 265 266 267 268 267 267 267
279 278 278 278 277 275 272 270 268 266 264 261 260 259 258 257 257 259 259 256 253 252 253 253 252 251 253 253 254 257 259 259 260 259 260 263 265 265 265 267 266 265 267
Height
5801 5802 5803 5804 5805 5806 5806 5807 5808 5808 5808 5808 5809 5809 5810 5810 5810 5811 5811 5811 5811 5811 5811 5811 5810 5810 5810 5809 5809 5808 5807 5806 5805 5804 5803 5801 5800 5798 5797 5795 5793 5791 5790
5792 5793 5794 5795 5796 5797 5797 5798 5799 5799 5800 5800 5800 5801 5801 5802 5802 5803 5803 5803 5803 5803 5803 5803 5803 5803 5802 5802 5801 5801 5800 5799 5798 5797 5796 5795 5793 5792 5790 5788 5787 5785 5783
5781 5783 5784 5785 5786 5787 5788 5788 5789 5790 5790 5791 5791 5792 5792 5793 5793 5794 5794 5795 5795 5795 5795 5795 5795 5795 5794 5794 5794 5793 5793 5792 5791 5790 5789 5787 5786 5785 5783 5782 5780 5778 5776
5771 5772 5773 5774 5775 5776 5777 5778 5779 5779 5780 5781 5781 5782 5783 5783 5784 5784 5785 5786 5786 5787 5787 5787 5786 5786 5786 5785 5785 5785 5784 5784 5783 5782 5781 5780 5779 5777 5776 5774 5773 5771 5769
5759 5760 5762 5763 5764 5765 5766 5767 5767 5768 5769 5770 5770 5771 5772 5773 5774 5774 5775 5776 5776 5777 5777 5777 5777 5777 5777 5777 5776 5776 5776 5775 5774 5774 5773 5772 5771 5769 5768 5766 5765 5763 5761
5746 5748 5749 5751 5751 5752 5753 5754 5755 5756 5757 5758 5759 5760 5761 5762 5762 5763 5764 5765 5766 5766 5767 5767 5767 5767 5768 5767 5767 5767 5767 5766 5766 5765 5764 5763 5762 5761 5760 5758 5757 5755 5753
5733 5735 5736 5738 5739 5740 5741 5741 5742 5743 5744 5744 5746 5747 5749 5749 5750 5752 5753 5753 5754 5755 5756 5756 5757 5757 5758 5758 5757 5757 5757 5757 5756 5756 5755 5754 5753 5752 5751 5749 5748 5746 5744
5719 5720 5722 5724 5725 5725 5726 5727 5728 5729 5730 5730 5731 5733 5735 5738 5738 5739 5740 5741 5742 5743 5744 5745 5746 5746 5747 5747 5747 5747 5747 5747 5747 5746 5745 5745 5744 5743 5741 5740 5739 5737 5735
5704 5706 5708 5709 5709 5710 5711 5712 5713 5715 5716 5716 5716 5718 5720 5723 5725 5727 5727 5728 5729 5730 5732 5733 5734 5735 5735 5736 5736 5736 5737 5736 5736 5736 5735 5734 5734 5733 5732 5731 5729 5727 5726
5689 5690 5692 5693 5694 5694 5696 5697 5698 5699 5700 5702 5702 5703 5704 5706 5709 5712 5715 5715 5716 5717 5718 5720 5721 5722 5723 5723 5724 5725 5725 5725 5725 5724 5724 5724 5723 5722 5722 5720 5719 5718 5716
5674 5675 5676 5677 5677 5678 5679 5681 5682 5683 5684 5686 5687 5688 5689 5690 5692 5695 5699 5702 5702 5704 5705 5706 5707 5708 5710 5711 5712 5713 5713 5713 5713 5713 5713 5712 5712 5711 5710 5710 5708 5707 5705
5658 5658 5659 5660 5661 5662 5663 5665 5666 5668 5669 5670 5672 5673 5674 5676 5678 5679 5682 5685 5687 5690 5690 5692 5693 5695 5696 5697 5699 5700 5700 5701 5701 5701 5700 5700 5700 5699 5699 5698 5697 5695 5694
5643 5643 5643 5644 5645 5646 5647 5648 5650 5652 5653 5654 5656 5657 5659 5660 5662 5663 5665 5668 5671 5674 5676 5678 5679 5681 5682 5684 5685 5685 5686 5687 5688 5688 5688 5688 5687 5687 5687 5686 5685 5684 5683
5627 5627 5626 5627 5628 5629 5631 5632 5634 5636 5637 5639 5640 5641 5643 5645 5646 5647 5649 5651 5654 5657 5660 5663 5665 5666 5668 5669 5671 5671 5672 5673 5674 5674 5675 5675 5675 5675 5675 5674 5673 5672 5671
5610 5610 5610 5611 5612 5613 5614 5616 5618 5620 5621 5623 5625 5626 5628 5629 5631 5632 5633 5635 5637 5639 5644 5648 5649 5651 5652 5654 5656 5656 5657 5659 5660 5661 5661 5662 5662 5662 5662 5661 5661 5660 5659
5595 5595 5595 5595 5596 5597 5598 5600 5602 5604 5606 5607 5609 5610 5612 5613 5615 5616 5617 5618 5620 5622 5626 5632 5633 5636 5637 5638 5640 5641 5642 5644 5646 5647 5647 5648 5649 5649 5649 5649 5648 5648 5647
5580 5580 5580 5581 5582 5582 5583 5585 5587 5589 5590 5592 5593 5595 5596 5597 5598 5600 5601 5602 5604 5605 5608 5614 5617 5619 5620 5622 5624 5626 5627 5629 5631 5632 5633 5634 5635 5635 5636 5636 5635 5635 5634
5565 5565 5565 5566 5567 5568 5569 5570 5572 5574 5575 5577 5578 5579 5581 5581 5582 5584 5585 5586 5588 5589 5591 5596 5600 5602 5605 5607 5609 5610 5612 5614 5616 5618 5618 5619 5620 5621 5621 5622 5622 5622 5621
5551 5551 5552 5553 5553 5553 5554 5555 5556 5558 5559 5561 5562 5563 5564 5565 5567 5568 5568 5570 5571 5573 5575 5578 5583 5587 5589 5591 5593 5595 5597 5599 5601 5603 5604 5605 5606 5607 5608 5608 5608 5608 5608
5539 5539 5540 5540 5539 5539 5539 5540 5541 5542 5544 5545 5546 5547 5549 5550 5551 5552 5553 5554 5556 5558 5560 5563 5567 5571 5574 5576 5578 5581 5583 5585 5588 5589 5590 5592 5593 5593 5594 5594 5594 5595 5595
5527 5527 5526 5526 5525 5525 5525 5525 5526 5527 5528 5530 5531 5532 5533 5534 5536 5537 5538 5540 5541 5543 5546 5548 5552 5556 5559 5562 5565 5567 5569 5572 5575 5576 5577 5579 5579 5580 5580 5580 5581 5581 5581
5515 5514 5513 5512 5512 5511 5511 5510 5511 5512 5513 5515 5516 5518 5519 5520 5521 5522 5524 5525 5527 5529 5532 5535 5538 5542 5546 5549 5551 5553 5556 5558 5562 5565 5564 5566 5566 5567 5568 5568 5567 5567 5568
5504 5503 5501 5499 5498 5498 5497 5496 5496 5497 5499 5501 5502 5503 5505 5506 5507 5509 5510 5512 5514 5516 5519 5522 5525 5529 5532 5536 5539 5541 5543 5545 5549 5551 5551 5553 5554 5555 5555 5555 5555 5555 5555
5493 5491 5489 5487 5486 5485 5484 5483 5483 5484 5485 5487 5488 5490 5491 5493 5494 5496 5497 5499 5502 5504 5507 5510 5513 5517 5520 5523 5525 5528 5530 5533 5535 5537 5538 5540 5542 5543 5543 5543 5543 5543 5544
5482 5480 5478 5476 5475 5474 5472 5471 5471 5471 5473 5474 5476 5477 5478 5480 5482 5484 5485 5487 5491 5493 5495 5498 5501 5504 5507 5510 5513 5515 5518 5519 5523 5526 5527 5528 5530 5530 5531 5532 5532 5532 5533
5472 5470 5468 5466 5464 5463 5461 5460 5460 5460 5461 5463 5465 5466 5467 5469 5471 5472 5474 5476 5480 5483 5485 5487 5490 5493 5496 5499 5501 5503 5506 5508 5511 5514 5516 5517 5518 5518 5521 5523 5522 5522 5522